PROGRESS-MS 17 (48869 NORAD) Tracking and Keplerian Element Data

This shows tracking and keplerian element data for the satellite.

Feedback or suggestion? Click here.




ElementValue
Catalog48869
NamePROGRESS-MS 17
Epoch Orbit30709
Epoch Day287.530813
Epoch Year2021
RAAN112.6192
Inclination51.6413
Eccentricity0.000418
Argument of Perigee111.0667
Mean Anonmoly297.8505
Mean Motion15.48678783
Decay Rate5.594E-05
L11 48869U 21057A 21287.53081300 .00005594 00000-0 11084-3 0 9990
L22 48869 51.6413 112.6192 0004180 111.0667 297.8505 15.48678783307096

Live tracking and technical data element details for PROGRESS-MS 17 (NORAD 48869). PROGRESS-MS 17 can be tracked NOW for your location showing map with azimuth and elevation plus other details from your city location.

Track the satellite on the map from your city or location and see movement details for azimuth, elevation, latitude, longitude, range, height, and movement on the map or in text.







IsCatalogInMostPopularTable: catalog: 48869, numindb: 28
Update: records affected: 1



GetName: 48869 PROGRESS-MS 17

Hit Count: updated at: Tue, 19 Oct 2021 09:30:21 GMT